Regional Weather Roundup
Issued by NWS

Home | Current Version | Previous Version | Text Only | Print | Product List | Glossary On
Versions: 1 2 3 4 5 6 7 8 9 10 11 12 13 14 15 16 17 18 19 20 21 22 23 24 25 26 27 28 29 30 31 32 33 34 35 36 37 38 39 40 41 42 43 44 45 46 47 48 49 50
000
ASUS43 KBIS 271610
RWRND

NORTH DAKOTA REGIONAL WEATHER ROUNDUP
NATIONAL WEATHER SERVICE BISMARCK ND
1100 AM CDT THU APR 27 2017

NOTE: "FAIR" INDICATES FEW OR NO CLOUDS BELOW 12,000 FEET WITH NO
SIGNIFICANT WEATHER AND/OR OBSTRUCTIONS TO VISIBILITY.


NDZ001>003-009>011-017-271700-
NORTHWEST NORTH DAKOTA

CITY           SKY/WX    TMP DP  RH WIND       PRES   REMARKS
WILLISTON      FAIR      42  24  49 E7        29.76S
MINOT          FAIR      42  13  30 N13       29.77S
MINOT AFB      SUNNY     40  12  32 NE12      29.76F
$$

NDZ018>021-031>035-040>046-271700-
SOUTHWEST NORTH DAKOTA

CITY           SKY/WX    TMP DP  RH WIND       PRES   REMARKS
BISMARCK       FAIR      42  21  43 N10       29.74F
DICKINSON      PTSUNNY   37  25  61 E12       29.70S
GARRISON       NOT AVBL
HETTINGER ARPT CLOUDY    33  25  72 E12       29.71F
$$

NDZ004>008-012>016-024-026-027-054-271700-
NORTHEAST NORTH DAKOTA

CITY           SKY/WX    TMP DP  RH WIND       PRES   REMARKS
GRAND FORKS    MOSUNNY   32  24  72 NW9       29.71S
GRND FRKS AFB  CLOUDY    33  22  62 N12       29.71S
DEVILS LAKE    FAIR      37  20  50 N17G23    29.72F
$$

NDZ022-023-025-028>030-036>039-047>053-271700-
SOUTHEAST NORTH DAKOTA

CITY           SKY/WX    TMP DP  RH WIND       PRES   REMARKS
FARGO          MIX PCPN  30  25  81 N16       29.69F WCI  19
JAMESTOWN      FAIR      37  23  56 N16       29.70F
$$




USA.gov is the U.S. government's official web portal to all federal, state and local government web resources and services.